Location: Franzen
(48.6167°N, 15.3833°E)
Time: 18:10:00
(UTC+00:00)

A-11 Canister half - Pass Details

Date: 02 August 2021
Orbit: 1515 x 1685 km, 47.2° (Epoch: 19 September)

Event Time Altitude Azimuth Distance (km) Brightness Sun altitude
Rises 14:24:30 0° 204° (SSW) 4,743 12.1 39.2°
Reaches altitude 10° 14:27:56 10° 195° (SSW) 3,786 11.6 38.7°
Maximum altitude 14:36:08 33° 136° (SE) 2,496 10.2 37.4°
Drops below altitude 10° 14:44:33 10° 78° (ENE) 3,911 10.7 36.1°
Sets 14:48:09 0° 70° (ENE) 4,919 11.1 35.5°
